Home   Weather   Langenhagen   Past weeks

Flag for Germany Past Weather in Langenhagen, Lower Saxony, Germany — Yesterday and Last 2 Weeks

Now
46 °F

Light rain. Mostly cloudy.


Feels Like: 42 °F
Forecast: 40 / 44 °F
Wind: 8 mph from South

Location: Hannover

Current Time: Dec 11, 2016 at 3:24:58 am

Latest Report: Dec 11, 2016 at 2:50 am


Visibility: 3 mi

Pressure: 29.89 "Hg

Humidity: 93%

Dew Point: 45 °F

Location of LangenhagenLocation

Past Weather in Langenhagen — Graph

°F

Langenhagen Temperature Yesterday

Maximum temperature yesterday: 50 °F (at 12:20 am)
Minimum temperature yesterday: 46 °F (at 1:50 pm)
Average temperature yesterday: 48 °F

High & Low Weather Summary for the Past Weeks

 TemperatureHumidityPressure
High52 °F (Dec 8, 1:20 pm)100% (Nov 26, 2:20 am)30.60 "Hg (Nov 26, 2:20 am)
Low18 °F (Nov 29, 4:50 am)49% (Dec 5, 12:50 pm)29.92 "Hg (Dec 11, 2:20 am)
Average36 °F84%30.29 "Hg
* Reported Nov 26 2:20 am — Dec 11 2:20 am, Langenhagen, Weather by CustomWeather, © 2016

Note: Actual official high and low records may vary slightly from our data, if they occured in-between our weather recording intervals... More about our weather records

Advertising

Langenhagen Weather History for the Previous 24 Hours

Scroll right to see more
 ConditionsComfort  
Time TempWeatherWind HumidityBarometerVisibility
2:20 am
Sun, Dec 11
46 °FDrizzle. Low clouds.7 mph93%29.92 "Hg3 mi
1:50 am46 °FDrizzle. Mostly cloudy.8 mph93%29.95 "Hg3 mi
1:20 am46 °FPassing clouds.6 mph93%29.95 "Hg3 mi
12:50 am46 °FPassing clouds.5 mph93%29.98 "Hg1 mi
12:20 am46 °FPassing clouds.5 mph100%30.01 "Hg1 mi
11:50 pm
Sat, Dec 10
46 °FLight rain. Partly cloudy.8 mph93%30.04 "Hg6 mi
11:20 pm46 °FPassing clouds.6 mph93%30.04 "Hg3 mi
10:50 pm46 °FPassing clouds.6 mph93%30.07 "Hg2 mi
10:20 pm46 °FPassing clouds.6 mph93%30.07 "Hg2 mi
9:50 pm46 °FPassing clouds.5 mph93%30.07 "Hg1 mi
9:20 pm46 °FPassing clouds.5 mph93%30.09 "Hg1 mi
8:50 pm46 °FPassing clouds.6 mph93%30.09 "Hg1 mi
8:20 pm46 °FPassing clouds.6 mph93%30.09 "Hg2 mi
7:50 pm46 °FPassing clouds.8 mph93%30.12 "Hg2 mi
7:20 pm46 °FLight rain. Passing clouds.8 mph93%30.12 "Hg4 mi
6:50 pm46 °FPassing clouds.9 mph93%30.12 "Hg4 mi
6:20 pm46 °FPassing clouds.9 mph93%30.12 "Hg4 mi
5:50 pm46 °FFog.9 mph93%30.12 "Hg3 mi
5:20 pm46 °FFog.9 mph93%30.12 "Hg3 mi
4:50 pm46 °FFog.10 mph93%30.12 "Hg3 mi
4:20 pm46 °FFog.9 mph93%30.12 "Hg3 mi
3:50 pm46 °FFog.6 mph93%30.12 "Hg3 mi
3:20 pm46 °FDrizzle. Fog.9 mph93%30.12 "Hg2 mi
2:50 pm46 °FDrizzle. Broken clouds.8 mph93%30.12 "Hg1 mi
2:20 pm46 °FDrizzle. Broken clouds.10 mph93%30.15 "Hg1 mi
1:50 pm46 °FDrizzle. Partly sunny.9 mph93%30.15 "Hg3 mi
1:20 pm48 °FPartly sunny.12 mph82%30.15 "HgN/A
12:50 pm48 °FPartly sunny.12 mph82%30.15 "HgN/A
12:20 pm48 °FPartly sunny.10 mph82%30.15 "HgN/A
11:50 am48 °FPartly sunny.13 mph82%30.15 "HgN/A
11:20 am48 °FPartly sunny.10 mph76%30.15 "HgN/A
10:50 am48 °FPartly sunny.12 mph76%30.15 "HgN/A
10:20 am48 °FPartly sunny.12 mph76%30.15 "HgN/A
9:50 am48 °FPartly sunny.12 mph71%30.15 "HgN/A
9:20 am48 °FPartly sunny.14 mph71%30.12 "HgN/A
8:50 am48 °FPartly sunny.13 mph71%30.15 "HgN/A
8:20 am48 °FPassing clouds.9 mph76%30.15 "HgN/A
7:50 am48 °FPassing clouds.8 mph76%30.12 "HgN/A
7:20 am48 °FPartly cloudy.8 mph76%30.12 "HgN/A
6:50 am48 °FPartly cloudy.9 mph76%30.15 "HgN/A
6:20 am48 °FPassing clouds.8 mph76%30.15 "HgN/A
5:50 am48 °FClear.9 mph76%30.15 "Hg10 mi
5:20 am48 °FPassing clouds.8 mph82%30.15 "HgN/A
4:50 am48 °FPassing clouds.7 mph82%30.15 "HgN/A
4:20 am48 °FPassing clouds.8 mph82%30.18 "HgN/A
3:50 am48 °FPassing clouds.7 mph82%30.18 "HgN/A
3:20 am48 °FClear.7 mph82%30.18 "Hg10 mi
Weather by CustomWeather, © 2016

See weather overviewHow to use our weather pages